Flag for Brazil Weather past 2 weeks in Cuiabá, Mato Grosso, Brazil

Now
75 °F

Partly cloudy.


Feels Like: 74 °F
Forecast: 73 / 95 °F
Wind: 2 mph from Northeast

Location: Cuiaba Aeroporto

Current Time: Feb 26, 2015 at 9:04:16 PM

Latest Report: Feb 26, 2015 at 8:00 PM


Visibility: N/A

Pressure: 29.86 "Hg

Humidity: 94%

Dew point: 73 °F

Location of CuiabáLocation

Historic Weather in Cuiabá — Graph

°F

Cuiabá temperature yesterday

Maximum temperature yesterday: 91 °F (at 1:00 PM)
Minimum temperature yesterday: 72 °F (at 1:00 AM)
Average temperature yesterday: 81 °F

Past Weeks' High & Low Weather Summary

 TemperatureHumidityPressure
High93 °F (Feb 13, 2:00 PM)100% (Feb 14, 5:00 AM)30.04 "Hg (Feb 14, 5:00 AM)
Low68 °F (Feb 23, 1:00 PM)44% (Feb 14, 4:00 PM)29.71 "Hg (Feb 18, 5:00 PM)
Average79 °F81%29.90 "Hg
* Reported Feb 11 9:00 PM — Feb 26 8:00 PM, Cuiabá, Weather by CustomWeather, © 2015

Note: Actual official high and low records may vary slightly from our data, if they occured in-between our weather recording intervals... More about our weather records

Advertising

Cuiabá weather history for previous 24 hours

 ConditionsComfort  
Time TempWeatherWind HumidityBarometerVisibility
8:00 PM
Thu, Feb 26
75 °FPartly cloudy.2 mph94%29.86 "HgN/A
7:00 PM77 °FMostly cloudy.3 mph89%29.83 "HgN/A
6:00 PM75 °FBroken clouds.No wind94%29.83 "HgN/A
5:00 PM75 °FThunderstorms. Broken clouds.6 mph94%N/AN/A
4:00 PM72 °FThunderstorms. Broken clouds.7 mph94%N/A2 mi
3:00 PM91 °FThunderstorms. Broken clouds.3 mph56%29.77 "HgN/A
2:00 PM91 °FScattered clouds.3 mph56%29.80 "HgN/A
1:00 PM86 °FScattered clouds.2 mph66%29.83 "HgN/A
12:00 PM91 °FThunderstorms. Scattered clouds.10 mph56%29.89 "HgN/A
11:00 AM91 °FPassing clouds.3 mph52%29.92 "HgN/A
10:00 AM90 °FSunny.5 mph59%29.92 "Hg10 mi
9:00 AM84 °FSunny.7 mph70%29.95 "Hg10 mi
8:00 AM81 °FSunny.9 mph79%29.95 "Hg10 mi
7:00 AM79 °FSunny.9 mph79%29.95 "Hg10 mi
6:00 AM75 °FSunny.8 mph89%29.92 "Hg10 mi
5:00 AM77 °FClear.5 mph83%29.92 "Hg10 mi
4:00 AM77 °FPassing clouds.3 mph83%29.89 "HgN/A
2:00 AM77 °FPassing clouds.6 mph89%29.89 "HgN/A
1:00 AM77 °FPassing clouds.6 mph89%29.92 "HgN/A
12:00 AM77 °FPassing clouds.3 mph89%29.92 "HgN/A
11:00 PM
Wed, Feb 25
77 °FPassing clouds.2 mph89%29.92 "HgN/A
10:00 PM77 °FPartly cloudy.5 mph89%29.92 "HgN/A
9:00 PM79 °FPartly cloudy.3 mph79%29.92 "HgN/A
Weather by CustomWeather, © 2015

See weather overviewHow to use our weather pages